Lid_Strength_Index
1 1 1 1 1 1 2 2 4 6 5 3 3 0 -0 -1 -0 -1 -1 2 3 4 4 4 4 3 1 1 2 2 1 1 1 0 -0 -1 -1 -1
1 1 1 1 1 1 1 2 2 4 6 2 2 1 0 -0 -1 -1 -0 2 3 3 4 4 3 3 3 3 3 3 2 2 2 2 1 1 0 -0
2 2 2 1 1 1 1 1 2 2 4 3 1 1 1 1 0 -0 -0 0 0 4 3 3 4 4 4 3 4 4 3 3 3 2 1 1 1 1
3 3 2 1 1 1 1 2 2 2 3 4 2 2 1 1 0 0 0 -0 0 2 3 3 4 4 4 4 5 5 5 5 4 4 4 3 2 1
3 2 2 1 2 2 2 2 2 2 2 3 3 2 1 1 1 0 1 1 0 1 3 4 4 4 4 5 5 6 6 6 7 7 6 5 4 3
3 2 2 1 2 1 2 2 2 2 2 3 3 3 2 1 1 2 2 1 2 1 1 2 3 3 4 4 5 4 5 7 8 8 8 8 7 6
2 1 1 1 1 1 1 2 2 2 3 3 3 3 3 3 3 2 3 2 2 2 1 0 -0 -0 -0 3 2 3 4 6 7 8 9 9 9 8
2 2 2 2 2 2 2 2 1 2 3 3 4 4 3 3 2 3 3 4 5 3 1 2 -0 0 -0 -1 3 5 5 6 7 8 9 9 10 9
4 4 4 3 3 1 2 3 3 2 2 2 3 3 3 2 2 3 4 4 4 3 1 2 1 1 0 -0 4 5 6 8 9 9 9 10 10 11
4 4 4 3 3 2 1 2 1 1 1 1 1 1 1 2 1 2 4 4 5 4 2 3 1 1 -0 -0 6 6 8 9 9 9 9 9 10 11
4 3 3 3 5 6 2 2 2 2 2 4 3 5 7 7 5 4 5 6 7 5 2 2 2 2 1 1 3 9 9 9 10 9 9 10 11 11
4 3 4 3 6 7 5 3 4 3 2 2 2 6 7 6 7 3 5 6 5 4 2 2 2 2 4 2 3 4 7 9 10 10 10 10 10 8
4 3 1 6 8 8 9 2 3 2 3 2 4 4 5 4 4 4 4 4 4 4 2 1 2 2 2 3 2 4 5 7 8 10 11 11 10 10
4 2 3 6 8 8 7 8 8 5 4 4 4 5 4 5 5 4 4 3 2 1 1 -0 2 2 3 3 4 3 4 6 7 9 10 11 12 12
4 4 7 9 9 7 9 9 7 4 5 4 4 4 4 3 2 2 1 1 1 1 1 0 1 1 2 3 3 4 5 7 8 9 10 11 10 10
4 4 6 7 9 7 7 6 4 3 3 3 4 3 3 2 2 1 1 1 2 1 0 1 2 1 2 2 2 4 6 8 11 12 13 14 14 12
4 4 5 6 6 6 5 4 3 3 4 3 3 3 3 2 2 2 1 2 3 3 2 3 3 2 4 1 3 3 7 11 12 13 14 15 14 12
5 5 5 5 5 4 3 3 2 3 2 3 3 3 3 2 2 2 1 2 3 3 3 3 3 5 5 5 5 6 9 12 12 12 13 16 14 13
5 6 5 4 4 3 3 3 3 3 3 3 3 3 2 2 3 2 2 2 3 3 2 2 3 3 5 8 7 9 11 13 13 14 13 15 15 13
6 5 4 3 3 3 3 3 3 3 3 3 3 2 2 2 2 2 2 3 3 3 3 2 3 3 5 7 9 12 13 12 13 15 15 14 14 13
7 5 3 3 2 2 2 2 3 3 3 3 2 2 2 2 2 2 2 8 6 3 4 3 2 10 6 7 11 13 13 13 11 14 14 14 14 13
7 6 3 3 2 2 2 3 3 3 3 3 2 2 1 1 2 2 2 3 3 3 3 4 4 4 5 7 12 14 15 14 12 11 11 11 12 14
7 6 3 2 2 2 3 3 2 3 3 3 2 2 1 2 2 2 2 2 2 3 3 5 4 4 7 10 13 13 15 14 13 11 10 11 10 10